Погода в Новой Габсельге

Россия / Республика Карелия     62°48′18″N   35°05′10″E
темп.,
°C
ветер,
м/с
пор.,
м/с
влажн.,
%
обл.,
%
осадки,
мм/ч
давл.,
гПа
погр.,
м
25 июля, вс
вс2500:00+15з4764100 0.0 1012150
03:00+13ссз34695 0.0 1013125
06:00+14зюз346732 0.0 1013139
09:00+16з355930 0.0 1014315
12:00+17ююз24528 0.0 1014534
15:00+19ссз245217 0.0 1014510
18:00+19ю2357100 0.0 101478
21:00+17с2270100 0.0 101511
26 июля, пн
пн2600:00+16зсз227029 0.0 101613
03:00+16з3474100 0.0 101772
06:00+15з3577100 0.1 1017136
09:00+17зсз347256 0.1 1017198
12:00+19сз356513 0.2 1018472
15:00+21с475677 0.3 1018546
18:00+20с245991 0.0 1018351
21:00+18ссв3363100 0.0 101947
27 июля, вт
вт2700:00+16в467287 0.0 1021128
03:00+13всв347327 0.0 1022108
06:00+14в236592 0.0 1022145
09:00+16юв125944 0.0 1021250
12:00+16юз11602 0.0 1021380
15:00+18ююз336115 0.0 1019544
18:00+20с23555 0.0 1018371
21:00+19в22617 0.0 101711
28 июля, ср
ср2800:00+17ююв227266 0.0 101719
03:00+16ююв347898 0.0 101653
06:00+16ююз23805 0.1 101472
09:00+17зюз34840 0.5 1012129
12:00+20ю336826 0.0 1010510
15:00+23ю335699 0.7 1008143
18:00+22ю675948 0.3 1006125
21:00+20юз33615 0.3 100512
29 июля, чт
чт2900:00+19зюз22685 0.0 100412
03:00+16сз127515 0.1 100311
06:00+16зюз127971 0.2 100227
09:00+17ююз1274100 0.3 100069
12:00+20ююз2560100 0.0 999296
15:00+17юв2293100 0.9 99947
18:00+17ююв4790100 0.8 996201
21:00+17ююз4894100 2.7 994157